Theta_e
323 324 327 322 305 304 299 301 305 304 304 306 308 308 307 308 305 302 320 330 331 332 338 346 349 351 351 351 350 349 349 349 349 348 345 343 341 340 339 340 342 343 342 340 338 335 334 333 333
322 321 323 316 301 296 298 303 303 306 306 307 307 307 307 306 312 315 321 330 332 333 338 344 346 350 351 350 350 349 349 349 347 347 345 343 339 337 338 337 338 339 338 337 334 330 328 329 326
319 318 313 307 302 297 298 303 304 305 306 307 307 309 309 309 312 317 323 329 332 334 337 340 344 349 351 350 350 350 350 349 348 347 345 341 339 335 336 334 336 337 335 332 328 324 323 323 323
319 317 312 302 298 301 301 304 305 306 306 307 308 306 310 313 314 317 325 330 332 335 338 341 345 348 350 349 349 349 350 349 349 346 340 339 337 335 332 333 335 333 329 326 323 322 321 321 320
318 313 302 299 298 301 304 305 305 304 305 306 306 306 307 311 314 316 326 329 332 335 339 342 344 347 349 349 348 349 349 348 347 342 339 338 336 333 328 332 328 326 324 323 323 323 321 320 319
310 310 299 297 298 302 304 306 305 305 306 305 305 306 309 312 312 317 325 329 334 335 338 341 338 340 345 346 347 347 346 343 342 341 337 336 334 330 327 328 325 324 322 323 323 320 319 318 316
305 304 299 298 299 301 304 305 304 305 305 306 308 305 310 310 313 317 323 329 333 335 337 339 341 340 335 339 340 340 340 340 340 339 337 334 332 328 326 325 324 323 323 323 320 319 318 316 314
311 307 299 300 299 299 304 304 305 305 305 307 309 305 307 312 312 318 322 327 330 333 335 336 339 341 341 341 331 333 335 336 337 336 333 330 328 327 326 325 325 323 322 320 319 317 315 313 310
307 302 298 299 298 301 304 303 305 306 306 306 308 309 311 310 313 317 320 323 325 327 331 333 335 337 339 339 335 329 331 332 332 331 327 323 326 324 322 322 324 323 320 318 317 314 311 309 306
306 301 300 303 303 302 304 303 305 304 305 306 306 310 309 309 312 314 316 318 321 323 325 329 331 333 336 334 336 335 333 333 332 330 329 326 324 323 320 318 322 321 318 315 313 309 303 300 302
305 300 304 302 303 303 302 303 305 304 302 306 306 309 311 308 310 311 314 317 320 322 324 324 327 330 332 332 332 332 332 331 329 329 327 324 320 319 318 319 319 318 313 312 309 303 302 301 302
301 304 304 304 303 303 302 304 303 304 305 309 310 311 310 308 309 310 312 314 317 319 322 323 324 326 329 331 329 329 328 328 327 327 324 320 318 317 316 316 316 315 312 309 304 302 301 300 300
301 303 304 305 304 303 304 303 303 304 307 309 309 307 307 308 309 311 312 314 316 316 319 321 322 324 326 327 328 327 327 327 326 325 321 319 316 314 313 313 313 312 309 305 301 301 300 299 298
301 301 302 302 302 303 300 302 301 303 307 306 306 306 308 307 308 309 309 309 311 314 316 319 320 321 323 324 325 325 325 325 324 322 319 316 315 312 311 311 309 308 305 302 301 300 299 299 299
301 298 300 301 300 300 301 298 298 304 305 303 305 306 307 307 307 307 309 309 310 312 314 315 317 319 320 321 323 323 323 322 321 319 318 314 312 310 308 308 307 304 301 300 299 298 298 297 297
297 296 293 299 297 299 300 294 301 304 301 302 304 305 306 307 307 308 309 309 310 311 311 313 313 315 318 319 321 320 320 319 318 318 315 313 309 308 306 305 304 301 299 299 298 297 296 297 296
296 292 293 294 298 297 298 295 301 302 301 301 303 304 304 305 307 309 309 309 310 310 310 310 312 313 315 317 318 319 318 317 316 316 314 311 309 306 304 304 303 300 298 297 297 297 297 296 295
293 291 292 291 298 296 294 294 298 301 300 300 302 303 304 304 305 307 308 309 309 309 309 310 310 311 312 314 315 316 315 315 315 314 312 310 307 304 303 302 302 299 297 297 297 296 296 296 295
294 292 292 295 298 294 294 295 297 299 300 300 301 302 303 304 306 306 307 308 308 308 307 307 307 308 309 310 310 311 311 312 311 312 311 309 307 304 302 302 300 298 297 297 296 296 294 294 295
293 291 292 295 296 293 294 293 296 299 299 300 301 303 303 303 305 305 305 306 306 306 306 306 305 306 307 308 309 310 309 310 310 310 309 308 306 304 302 300 299 297 297 296 295 295 293 294 294
293 290 292 292 294 294 292 293 295 299 299 300 302 302 302 301 301 302 304 305 306 305 305 305 305 305 304 306 307 307 307 305 306 306 306 306 305 304 301 301 300 298 297 296 296 295 294 293 292
290 296 293 291 289 287 293 286 295 299 299 299 301 300 300 301 301 302 302 302 302 302 304 303 303 303 303 303 304 304 302 301 302 303 304 304 303 302 301 300 300 298 297 296 296 296 296 296 292
291 293 291 290 289 288 290 286 294 294 295 296 298 299 300 300 300 300 300 300 300 301 300 301 301 301 302 301 302 302 302 303 304 303 302 302 300 301 301 300 299 298 297 297 296 295 295 296 296
293 292 291 289 288 284 291 288 291 293 294 297 297 297 297 297 296 296 296 296 296 297 297 297 297 297 299 300 301 301 300 301 300 301 299 299 299 298 299 299 298 298 296 296 296 295 295 294 295
291 289 285 286 284 285 288 286 290 296 296 294 294 293 294 294 293 292 292 292 293 293 294 294 294 294 296 297 298 299 299 300 299 300 299 299 297 297 297 298 297 297 296 296 295 294 294 294 293
289 290 286 280 283 287 289 285 291 297 295 294 294 294 294 293 293 293 292 292 292 292 292 292 293 292 292 294 294 296 297 297 298 299 299 298 298 298 298 297 297 296 296 295 294 294 293 294 293
289 287 294 286 287 282 287 292 295 294 293 293 293 293 291 291 291 291 292 292 292 291 291 291 291 292 291 291 293 294 294 295 296 297 297 297 298 297 297 297 295 295 295 294 294 292 292 292 292
290 292 284 285 278 278 284 287 288 290 292 292 291 289 289 289 289 289 289 290 291 292 292 292 292 291 291 290 291 292 292 293 294 294 295 295 296 296 295 295 294 295 294 293 293 292 292 291 291
287 286 287 287 285 280 279 285 292 290 288 288 288 287 287 287 287 287 288 289 290 291 291 291 291 290 290 290 290 291 291 291 292 292 293 294 295 295 294 294 293 293 293 292 291 291 291 289 289
294 291 291 284 282 284 283 283 295 290 287 287 285 285 286 286 286 286 287 288 288 289 289 289 289 289 289 289 289 289 290 290 290 290 291 292 292 293 293 292 292 291 291 291 289 289 289 288 287
Wind_Speed
1 2 2 4 5 4 3 1 2 3 2 1 3 3 4 7 4 5 2 9 6 15 15 16 13 16 15 13 12 11 12 12 12 11 10 8 8 6 6 5 6 8 8 9 8 7 6 4 5
2 2 2 1 4 4 3 0 2 2 2 2 4 5 6 6 3 1 3 11 9 14 14 16 11 13 16 15 13 11 11 10 10 11 11 8 8 5 6 3 4 5 7 8 8 6 6 6 5
0 3 3 1 2 3 3 2 2 2 3 4 3 3 3 2 2 1 2 13 11 13 13 13 12 12 14 15 13 12 12 12 13 12 12 8 7 5 5 4 5 6 6 7 6 5 6 6 6
2 3 3 5 6 7 5 5 5 7 2 4 4 6 3 3 1 2 4 14 13 14 13 10 11 12 13 14 12 12 14 13 14 15 8 7 6 5 4 5 7 7 7 7 6 7 7 7 7
1 1 3 3 5 4 7 7 6 4 1 4 4 2 4 3 3 3 8 11 14 15 13 12 10 12 13 14 14 13 13 13 12 10 8 7 7 7 6 6 6 6 7 8 8 9 8 9 8
2 2 4 5 4 5 6 5 5 5 3 2 5 6 4 3 5 6 8 12 13 15 13 13 11 9 11 13 14 15 13 10 8 8 9 8 9 9 9 8 8 7 6 8 8 8 8 9 8
2 2 3 4 5 4 2 2 4 2 3 5 1 5 1 6 5 6 8 11 11 14 13 13 14 12 8 10 10 10 9 5 8 9 10 10 10 10 10 10 10 9 9 9 9 8 8 8 10
2 3 3 4 3 4 3 3 1 5 2 2 2 6 3 4 6 5 6 10 12 12 13 13 13 14 13 13 8 7 10 10 10 11 10 9 8 8 7 7 9 11 10 10 10 9 9 9 9
2 5 6 5 6 2 4 5 4 2 7 6 9 7 3 6 6 7 7 10 11 12 14 14 14 14 14 14 11 7 9 8 11 10 9 9 9 10 10 8 9 11 10 10 10 10 9 10 9
5 4 5 4 5 5 4 6 6 6 11 15 12 14 8 6 8 10 12 14 16 17 17 15 15 16 15 11 13 14 12 7 8 9 12 10 10 9 9 8 8 10 10 10 9 9 8 6 3
4 7 6 6 11 6 7 8 6 11 15 18 16 9 9 11 11 14 15 17 18 16 14 17 16 16 16 13 10 8 7 7 7 13 12 11 9 8 8 7 7 8 8 7 7 6 3 3 2
6 12 11 4 3 4 7 5 11 14 23 23 20 15 14 12 15 16 17 17 16 16 18 18 18 16 17 11 11 11 10 10 9 12 15 10 8 9 9 7 9 8 7 7 6 4 4 3 3
9 10 10 11 9 11 11 20 18 21 23 24 20 14 17 17 18 15 15 15 14 17 16 17 18 18 16 17 12 12 13 12 13 13 14 12 11 10 9 9 8 8 7 6 6 5 5 4 4
2 7 12 10 14 12 11 23 3 15 11 15 13 17 15 15 17 14 14 16 17 16 17 16 19 19 17 16 17 13 12 13 13 12 13 16 12 11 11 10 9 8 7 6 5 5 5 4 4
5 12 15 15 9 10 9 13 18 22 10 15 17 15 13 14 13 15 14 15 15 15 16 19 19 19 20 20 17 13 12 12 13 13 15 17 15 14 13 10 10 9 8 8 6 6 5 5 4
6 4 10 2 5 3 10 17 21 8 6 13 18 21 20 22 19 15 15 13 12 14 17 16 14 18 20 19 15 13 13 13 12 12 12 17 17 16 14 11 11 10 9 8 8 7 6 5 5
7 12 13 11 7 3 12 14 11 6 11 25 25 24 21 22 20 16 14 14 12 12 14 15 16 18 19 17 14 14 15 13 12 12 12 16 16 16 13 11 10 12 9 9 9 8 8 7 5
13 9 9 10 6 9 14 19 20 23 23 26 26 24 20 18 20 14 12 11 10 9 10 11 12 15 16 12 12 11 12 13 13 13 13 17 14 17 14 11 11 11 10 10 10 11 8 7 7
13 17 21 19 16 16 23 24 18 21 24 27 23 20 15 13 11 9 9 9 8 6 7 9 12 13 11 11 11 12 13 11 12 13 17 18 16 18 16 12 14 12 11 12 12 8 10 6 8
16 22 22 19 14 6 19 26 24 24 21 21 19 15 11 11 9 10 9 7 6 6 5 6 8 9 11 9 9 10 9 11 12 12 14 15 16 17 15 14 13 15 12 14 14 13 9 6 11
18 16 19 22 15 14 13 15 4 8 8 11 10 8 7 8 9 12 12 15 16 18 16 10 8 8 9 12 9 9 9 8 10 12 12 14 17 16 18 18 14 15 12 11 14 14 15 9 10
19 14 16 15 9 8 7 11 13 16 16 9 10 15 14 14 12 13 16 18 17 16 15 14 11 7 7 9 10 13 11 12 10 10 10 11 17 18 18 18 16 15 12 13 12 12 13 11 10
7 4 5 4 8 9 5 8 3 4 4 7 14 13 16 16 17 20 18 16 18 17 17 15 13 10 6 5 10 9 13 11 9 9 11 14 13 16 18 17 17 17 13 15 16 15 14 11 10
1 4 6 2 4 10 12 9 2 1 5 4 10 15 22 22 21 20 19 19 20 19 18 18 18 18 16 9 8 12 14 12 11 9 8 8 10 11 17 18 17 17 16 17 15 15 17 14 10
5 7 5 6 6 8 7 3 7 9 4 14 17 17 16 15 16 20 21 21 21 21 20 17 21 22 20 15 11 11 12 12 14 13 9 11 10 10 15 18 17 15 17 17 17 17 17 18 15
7 7 4 6 8 15 5 9 6 1 16 18 17 17 19 20 19 19 18 16 18 20 20 19 19 18 18 17 16 12 12 9 10 11 11 10 10 11 15 16 17 18 17 16 15 13 14 15 15
6 9 12 10 9 8 11 14 10 10 11 12 13 13 16 16 16 16 18 18 18 19 20 20 19 19 19 17 15 15 12 12 12 15 12 10 12 10 14 15 17 18 19 19 18 14 16 16 16
5 1 4 3 5 11 15 11 9 10 3 7 11 13 14 14 15 15 15 16 16 16 15 16 16 17 17 17 15 13 15 15 13 13 14 14 14 14 13 14 15 17 18 18 19 15 15 16 13
3 5 2 2 4 6 8 7 5 8 5 6 6 9 12 13 14 15 15 16 15 15 16 16 16 16 16 16 16 16 15 15 14 13 14 14 14 14 14 14 15 16 18 18 18 19 17 18 17
13 17 16 12 11 10 11 16 2 11 10 6 5 6 7 8 10 11 12 13 14 14 15 15 15 16 16 16 15 14 13 15 15 15 15 14 15 14 14 14 15 15 17 18 19 20 18 19 19
Wind_Direction
206 347 264 239 250 254 261 176 314 255 241 90 136 251 317 317 306 345 84 180 185 168 172 177 185 175 176 171 167 170 172 168 161 146 141 150 130 115 105 109 111 112 110 94 94 95 93 91 82
22 270 224 225 260 270 72 93 229 312 337 183 212 215 249 288 268 271 216 182 188 170 173 180 179 183 178 173 171 175 178 176 156 153 149 143 133 140 127 127 140 145 115 110 102 108 104 98 85
132 335 263 275 263 309 350 186 56 356 248 225 237 258 300 250 192 310 47 164 177 174 180 183 175 186 183 175 177 180 184 179 172 160 157 150 130 162 131 164 175 144 125 108 101 105 100 87 83
257 174 139 263 272 272 270 302 291 299 211 238 286 255 217 281 245 88 142 160 175 178 185 171 189 189 182 176 182 185 186 188 172 163 153 131 159 154 167 168 122 125 127 118 122 119 100 90 78
52 225 237 264 274 274 259 288 285 265 266 199 208 262 252 179 156 156 164 175 182 179 183 185 194 200 193 189 188 187 191 189 165 147 145 163 167 174 180 164 142 138 137 133 132 117 114 94 86
170 284 238 273 281 276 277 265 270 255 238 178 222 260 261 116 191 180 177 187 188 183 183 189 185 193 204 197 195 192 177 160 157 161 188 188 183 182 188 172 170 156 148 134 120 112 104 98 93
264 238 292 278 283 279 233 188 224 258 236 229 271 258 267 211 180 167 182 186 190 188 190 191 192 191 185 177 179 191 180 190 170 172 181 199 186 188 187 175 173 163 155 142 132 120 108 104 94
171 238 222 221 235 271 199 220 208 241 292 84 233 234 254 104 138 155 175 186 192 194 198 200 201 196 196 192 185 179 178 191 178 167 173 170 171 183 179 167 177 167 155 147 140 128 122 111 105
209 227 240 237 196 199 182 242 168 288 263 219 199 245 349 116 144 168 175 195 202 206 207 203 204 206 205 204 197 191 187 184 169 166 161 162 199 189 177 185 166 165 158 152 142 132 119 108 97
229 240 248 239 224 244 233 238 279 245 249 253 244 241 224 183 193 204 203 205 208 209 206 206 206 206 206 206 205 205 202 193 189 183 191 196 197 192 194 178 185 157 156 152 146 137 136 184 147
181 243 249 234 242 260 275 266 248 256 267 258 268 269 245 225 227 231 226 224 215 215 208 207 206 207 206 204 206 205 201 196 191 197 195 194 191 183 189 179 176 169 167 168 159 160 173 140 142
240 241 245 273 226 245 258 286 259 244 260 275 286 286 271 238 232 229 233 231 225 216 212 206 206 204 205 204 204 203 200 202 202 201 195 188 189 191 191 192 184 182 182 174 175 167 147 134 98
237 257 258 252 257 258 280 266 265 265 261 273 278 269 263 260 255 248 248 247 241 228 222 214 206 207 206 205 205 206 205 201 203 201 195 193 194 193 189 194 189 188 180 182 178 169 163 156 156
343 271 277 271 255 244 245 268 258 266 260 277 273 272 267 260 259 260 241 244 235 233 227 217 212 211 207 210 212 207 208 203 205 203 199 200 197 192 191 189 192 190 187 180 180 174 172 171 170
300 294 293 265 260 234 220 266 233 260 280 276 282 281 280 256 256 245 250 236 233 230 225 217 214 212 213 213 213 211 211 207 206 207 203 198 198 197 196 192 190 189 184 176 174 174 173 174 178
273 247 280 295 179 181 196 268 281 293 288 287 289 289 284 280 278 268 267 256 242 228 222 220 207 208 213 217 215 213 214 212 212 209 204 202 200 198 195 192 193 184 180 180 181 176 178 185 182
226 268 250 288 225 142 208 282 275 265 290 292 287 282 280 282 286 282 277 270 258 240 231 223 213 216 217 220 220 219 219 218 218 214 210 206 204 202 200 199 194 181 182 186 184 182 183 177 172
265 245 245 258 284 254 272 261 279 284 287 279 279 283 287 287 289 313 307 291 279 251 239 226 217 219 218 216 219 224 224 220 219 215 214 205 202 200 201 201 195 187 187 189 187 180 183 182 163
291 274 276 278 284 293 285 294 297 286 276 273 281 283 295 290 321 342 340 329 322 287 250 232 222 218 208 209 213 223 226 228 229 224 215 209 203 200 202 197 190 190 194 191 188 179 172 168 162
267 273 278 279 275 286 294 298 293 272 276 272 280 293 294 309 352 24 24 31 356 337 329 288 261 242 221 217 216 225 220 231 233 228 227 219 212 204 201 200 197 193 189 193 188 181 177 176 184
252 261 274 283 306 275 297 284 283 305 281 269 294 297 338 18 46 66 55 34 29 24 10 357 322 272 238 231 225 219 232 240 226 223 218 213 209 203 200 199 196 192 198 194 188 188 184 179 191
275 264 268 278 292 285 2 292 303 281 285 355 28 41 55 67 81 63 32 32 35 29 16 3 349 315 265 237 244 243 240 237 225 229 225 216 214 211 205 201 198 197 195 199 196 192 190 183 181
264 8 293 278 268 301 233 260 324 281 309 70 61 56 46 39 40 27 26 36 38 30 20 14 9 6 324 264 244 250 251 264 266 247 231 211 209 215 213 210 203 198 198 201 194 191 197 195 188
157 262 262 229 251 257 255 221 59 140 63 65 65 53 35 31 31 35 27 25 30 28 27 22 17 20 10 342 285 269 267 268 264 247 241 229 218 214 215 217 211 203 199 199 198 196 196 198 202
229 281 302 259 216 268 109 234 289 273 348 54 67 60 49 44 33 25 21 20 20 21 21 20 24 22 14 4 336 297 281 275 269 265 250 238 225 219 219 215 215 213 209 203 196 196 198 200 199
176 203 214 269 279 292 354 257 246 166 72 52 46 38 36 31 31 24 19 16 14 17 16 17 23 24 22 12 358 333 317 295 282 267 262 253 237 230 222 216 219 219 214 212 209 204 204 206 207
153 203 228 249 267 272 249 253 229 96 76 60 43 33 30 27 19 12 10 10 10 11 15 14 12 12 12 9 4 4 350 324 301 293 273 257 250 247 232 219 217 219 216 212 206 211 207 205 205
251 89 187 217 244 256 267 258 256 184 268 55 26 23 20 20 22 20 14 9 10 9 7 10 13 7 5 5 4 1 3 355 329 307 291 273 261 248 237 226 217 220 220 215 212 212 212 207 207
168 197 182 175 196 251 269 246 89 119 58 22 40 28 26 24 18 10 8 5 5 3 1 0 1 1 1 359 359 0 358 360 355 338 312 293 279 262 240 225 221 220 218 217 216 214 208 207 208
255 245 244 241 217 215 243 265 51 117 84 63 60 37 11 9 9 6 357 355 355 357 354 352 353 352 354 352 345 346 352 352 353 353 341 317 292 274 257 243 225 222 220 219 221 217 210 205 209